Wind_Speed
10 10 10 10 10 10 10 11 11 11 12 12 12 12 12 13 13 14 14 13 13 13 14 14 14 15 17 18 19 20 21 21 22 23 24 26 27 27
10 10 10 10 10 10 11 11 11 12 12 12 13 13 13 13 13 14 14 14 14 15 15 15 15 16 17 18 19 20 21 22 23 24 24 26 27 28
10 11 11 11 11 11 12 12 12 13 13 13 14 14 14 14 14 14 14 14 15 15 15 16 17 18 18 19 20 21 22 23 24 25 26 27 28 29
11 12 12 13 12 13 14 14 14 14 14 14 14 14 14 14 14 14 14 15 15 16 16 17 18 19 20 20 21 22 23 24 25 26 26 27 29 30
12 13 14 14 14 15 15 15 14 14 14 14 14 14 14 15 15 15 15 16 16 17 18 19 19 20 22 23 23 23 23 24 25 26 27 28 29 30
14 14 14 15 15 15 16 15 15 14 14 14 14 14 15 15 15 16 16 17 18 18 19 20 21 22 22 23 23 23 24 24 25 26 27 27 28 29
16 16 15 16 16 16 16 15 15 15 15 15 16 15 15 15 16 16 17 18 19 19 20 21 21 22 23 23 24 24 25 25 26 27 27 28 28 29
17 17 17 17 17 17 17 16 16 16 16 16 16 16 16 17 17 18 18 19 20 20 21 22 23 23 24 24 25 25 26 27 28 28 28 29 30 30
17 17 18 18 18 18 17 17 17 17 17 17 17 17 18 18 19 20 20 21 21 22 22 23 24 24 25 25 26 27 28 28 28 29 29 29 30 30
18 18 19 19 18 18 18 18 19 19 19 19 18 18 19 20 21 21 21 22 23 23 23 24 25 26 27 27 28 28 29 29 29 30 30 30 30 30
19 20 20 20 20 20 20 20 20 20 20 20 20 21 21 22 22 22 23 23 24 25 25 26 27 27 28 29 29 30 30 30 30 30 30 31 31 31
21 21 21 21 21 21 21 21 21 22 21 21 21 21 22 23 23 24 24 25 26 26 27 28 28 29 29 30 30 31 31 31 31 31 32 32 32 33
23 23 23 23 23 22 23 23 23 23 23 23 23 23 23 24 25 25 26 27 28 28 29 29 30 31 31 31 31 32 32 33 33 33 33 33 33 33
25 25 25 24 24 23 24 24 24 24 24 24 24 25 25 26 27 27 28 29 30 30 31 31 32 32 32 33 33 34 34 34 34 35 35 34 34 34
26 26 26 25 25 25 25 24 25 25 25 25 25 26 27 28 28 29 30 30 31 32 32 32 33 33 33 34 34 34 34 35 35 35 35 35 34 34
26 25 25 25 25 25 25 25 25 25 26 26 27 27 28 29 29 30 30 31 31 32 33 33 34 34 34 34 34 34 34 34 35 35 34 34 34 34
26 26 26 25 25 25 26 26 26 27 28 28 29 29 29 30 30 31 31 32 32 32 32 33 34 34 34 34 34 34 35 35 35 35 34 34 34 33
27 26 27 26 26 26 27 28 28 29 29 29 30 30 31 32 32 32 32 32 32 33 33 33 33 34 35 35 35 35 35 35 35 35 35 34 34 34
28 28 28 28 28 29 29 30 30 30 31 31 31 32 32 32 32 32 33 33 33 33 33 33 34 34 35 35 35 35 35 35 35 34 34 34 34 34
30 30 30 30 30 30 31 31 32 32 32 32 31 31 32 32 32 32 32 32 33 33 34 34 34 35 34 34 34 34 35 35 35 34 34 34 34 33
32 31 31 32 32 33 32 32 33 33 33 33 33 33 32 32 33 33 33 34 33 33 34 34 34 35 34 34 34 34 35 35 35 34 34 33 33 33
32 32 32 32 33 33 33 33 33 33 33 33 33 33 33 33 33 33 33 33 33 33 33 33 34 34 34 35 34 34 34 35 34 34 34 34 33 32
32 32 32 32 33 33 33 33 33 33 33 33 33 33 33 33 33 32 32 32 32 32 32 33 33 34 34 34 34 34 34 34 34 33 33 34 34 33
Wind_Direction
322 317 312 310 309 307 307 306 304 301 302 304 302 301 301 299 297 298 299 297 297 297 295 296 298 296 292 292 291 288 288 288 288 286 285 282 282 281
326 325 321 315 311 307 307 306 305 303 302 302 303 303 301 301 299 300 300 299 297 297 297 297 300 301 299 298 296 293 291 292 290 289 289 287 286 285
324 323 323 319 312 308 307 306 305 303 300 300 302 301 299 299 298 297 300 299 298 297 298 300 300 301 300 299 298 298 298 296 294 291 290 289 289 288
321 319 318 317 315 310 309 307 304 302 301 299 300 300 301 300 299 298 299 299 298 297 298 300 300 301 302 301 300 300 300 298 296 295 293 292 291 290
316 315 314 313 313 312 311 309 306 303 302 302 302 301 301 300 298 297 297 296 296 296 298 299 301 301 301 302 303 302 302 301 298 296 295 294 293 291
316 314 313 313 312 312 311 309 306 304 303 303 302 302 301 298 297 299 299 298 298 298 298 300 301 302 303 303 304 304 303 302 300 299 298 298 296 295
316 315 313 312 311 311 310 308 307 305 302 300 302 300 298 298 299 300 299 299 299 299 299 300 302 304 305 305 305 305 305 303 302 300 300 299 299 298
314 314 313 312 310 310 308 306 305 305 303 302 301 299 297 297 298 299 299 299 299 300 301 303 305 305 305 305 306 307 306 305 303 302 301 300 300 299
313 313 312 311 310 308 308 305 304 303 303 303 300 298 297 297 298 298 298 299 301 302 303 304 305 305 305 305 305 305 305 305 304 303 302 302 302 302
314 312 311 311 310 307 305 305 304 304 303 302 300 298 297 297 297 298 297 298 300 301 301 302 303 304 305 304 305 305 306 305 304 304 304 304 303 303
311 311 311 311 309 306 304 304 303 303 303 301 299 298 297 297 296 297 297 298 300 301 302 303 303 304 305 305 305 305 305 305 304 303 303 303 303 303
310 309 309 309 308 306 304 304 303 301 300 299 299 298 298 297 297 297 297 297 299 300 301 302 302 303 303 303 304 304 304 304 303 303 304 305 306 305
308 307 306 306 305 304 302 301 302 301 298 297 297 298 299 299 298 298 298 298 298 298 299 301 301 301 302 302 303 303 304 303 303 303 304 305 304 304
306 305 304 303 303 303 302 300 299 299 298 297 297 298 298 298 298 298 298 298 299 299 300 300 301 301 302 302 302 302 302 303 303 304 304 304 303 303
306 304 303 302 302 302 301 300 300 299 297 297 297 297 297 297 296 297 299 300 299 300 300 300 301 302 302 303 303 303 303 303 303 304 304 305 303 302
308 307 306 304 304 303 302 300 299 298 297 296 296 297 298 297 297 298 298 300 301 300 300 300 301 302 302 303 303 302 302 302 303 304 304 305 305 304
307 306 305 305 305 303 302 301 301 299 297 296 296 297 298 299 299 299 298 299 300 300 300 301 301 301 301 302 303 303 302 302 303 304 304 305 305 305
306 305 304 303 303 304 303 301 300 299 298 297 297 297 298 298 299 299 299 298 299 300 300 300 301 301 301 302 303 303 303 303 303 303 303 304 305 304
303 303 303 302 302 302 302 301 300 300 299 298 297 297 296 297 297 298 299 299 298 298 299 300 301 300 301 302 303 303 303 303 304 304 303 304 304 304
301 302 301 301 301 302 301 301 300 300 300 298 297 297 296 296 296 297 298 299 299 299 298 299 300 301 301 301 302 302 303 303 303 303 303 303 303 303
298 299 300 300 301 302 301 300 300 300 300 299 298 297 296 296 296 298 298 299 299 299 299 300 300 301 301 302 302 303 302 303 303 303 304 303 303 304
297 298 299 299 300 301 302 302 301 301 300 299 299 298 297 297 298 299 300 300 299 299 299 300 300 302 303 303 304 304 303 303 303 303 303 303 303 302
295 297 298 300 300 300 301 302 302 301 302 301 300 298 298 298 299 300 301 301 299 299 300 301 301 302 302 303 305 305 304 304 304 304 304 303 303 302
Height
5878 5876 5874 5872 5871 5869 5868 5866 5865 5863 5861 5859 5858 5856 5854 5853 5851 5849 5848 5846 5844 5843 5841 5839 5838 5836 5834 5832 5830 5828 5826 5824 5822 5820 5818 5816 5815 5813
5875 5874 5872 5870 5868 5867 5865 5863 5862 5860 5858 5856 5855 5853 5851 5849 5848 5846 5844 5842 5841 5839 5837 5836 5834 5832 5829 5827 5825 5823 5821 5818 5816 5814 5812 5809 5807 5805
5873 5872 5870 5868 5866 5864 5862 5860 5859 5857 5855 5853 5852 5850 5848 5846 5844 5842 5841 5839 5837 5835 5834 5832 5830 5827 5825 5822 5820 5817 5815 5812 5810 5807 5805 5802 5800 5798
5871 5869 5867 5865 5863 5861 5859 5857 5855 5853 5852 5850 5848 5846 5844 5842 5840 5839 5837 5835 5833 5831 5829 5827 5825 5823 5820 5817 5814 5812 5809 5806 5803 5801 5798 5795 5793 5790
5869 5867 5865 5862 5860 5858 5856 5854 5852 5850 5848 5846 5845 5843 5841 5839 5837 5835 5833 5831 5829 5827 5825 5823 5820 5817 5815 5812 5809 5806 5803 5800 5797 5794 5791 5788 5785 5782
5866 5864 5862 5860 5857 5855 5853 5851 5848 5846 5845 5843 5841 5839 5837 5835 5833 5831 5829 5827 5825 5823 5820 5818 5815 5812 5809 5806 5803 5800 5797 5793 5790 5787 5783 5780 5777 5774
5863 5860 5858 5856 5854 5852 5849 5847 5845 5843 5841 5839 5837 5835 5833 5831 5829 5827 5825 5823 5820 5818 5815 5813 5810 5807 5803 5800 5797 5794 5790 5787 5784 5780 5776 5773 5770 5766
5859 5857 5855 5852 5850 5848 5846 5844 5841 5839 5837 5835 5833 5831 5828 5827 5824 5822 5820 5818 5816 5813 5810 5807 5804 5801 5797 5794 5791 5787 5783 5780 5776 5773 5769 5765 5762 5758
5856 5853 5851 5848 5846 5844 5841 5839 5837 5835 5833 5831 5828 5826 5824 5822 5819 5817 5815 5812 5810 5807 5804 5801 5798 5794 5791 5788 5784 5780 5776 5773 5769 5765 5761 5758 5754 5750
5852 5849 5847 5844 5842 5839 5837 5835 5832 5830 5828 5825 5823 5821 5819 5816 5814 5812 5809 5806 5804 5801 5798 5795 5791 5788 5784 5781 5777 5773 5769 5765 5761 5757 5753 5749 5745 5741
5847 5845 5842 5839 5837 5834 5832 5829 5827 5825 5822 5820 5818 5815 5813 5810 5808 5805 5803 5800 5798 5795 5791 5788 5784 5781 5777 5773 5769 5765 5761 5757 5753 5749 5745 5741 5737 5733
5842 5840 5837 5834 5831 5829 5826 5824 5821 5819 5816 5814 5812 5809 5807 5804 5802 5799 5796 5794 5791 5788 5784 5781 5777 5773 5769 5766 5761 5757 5753 5749 5745 5741 5737 5733 5729 5725
5837 5834 5831 5829 5826 5823 5820 5818 5815 5813 5810 5808 5805 5803 5800 5797 5795 5792 5789 5786 5783 5780 5777 5773 5769 5765 5761 5757 5753 5749 5745 5741 5737 5733 5728 5724 5720 5716
5831 5828 5825 5822 5819 5817 5814 5811 5808 5806 5803 5801 5798 5796 5793 5790 5787 5784 5781 5778 5775 5772 5768 5764 5760 5756 5752 5749 5745 5741 5736 5732 5728 5724 5720 5715 5711 5707
5824 5821 5818 5815 5812 5810 5807 5804 5801 5799 5796 5794 5791 5788 5785 5782 5779 5776 5773 5769 5766 5763 5759 5755 5751 5747 5744 5740 5736 5732 5728 5724 5719 5715 5711 5706 5702 5697
5818 5814 5811 5808 5805 5802 5800 5797 5794 5791 5789 5786 5783 5780 5777 5774 5771 5768 5764 5761 5757 5754 5750 5746 5742 5739 5735 5731 5727 5723 5719 5715 5710 5706 5701 5697 5692 5688
5811 5808 5805 5802 5799 5795 5792 5790 5787 5784 5781 5778 5775 5772 5769 5766 5762 5759 5755 5752 5748 5745 5741 5737 5733 5729 5726 5722 5718 5713 5709 5705 5701 5697 5692 5688 5684 5680
5805 5802 5799 5795 5792 5789 5785 5782 5779 5776 5772 5769 5766 5763 5760 5757 5753 5750 5746 5743 5739 5736 5732 5729 5724 5720 5716 5712 5709 5704 5700 5696 5692 5688 5683 5679 5675 5670
5798 5794 5791 5788 5784 5781 5777 5774 5771 5767 5764 5761 5758 5754 5751 5748 5744 5741 5737 5734 5730 5727 5723 5719 5715 5711 5707 5703 5699 5694 5691 5687 5682 5678 5674 5670 5666 5662
5790 5787 5783 5780 5776 5773 5769 5766 5762 5758 5755 5752 5748 5745 5742 5738 5735 5732 5728 5725 5721 5717 5714 5710 5706 5702 5698 5694 5690 5686 5681 5677 5673 5669 5665 5661 5657 5653
5781 5778 5774 5771 5767 5764 5760 5756 5753 5749 5745 5742 5739 5735 5732 5729 5726 5722 5719 5715 5712 5708 5704 5701 5696 5692 5688 5685 5681 5677 5672 5668 5663 5660 5656 5652 5648 5644
5772 5769 5765 5762 5758 5755 5751 5747 5743 5740 5736 5732 5729 5726 5723 5719 5716 5713 5709 5706 5702 5699 5695 5691 5687 5683 5679 5675 5671 5667 5663 5659 5654 5650 5646 5642 5638 5634
5763 5759 5756 5753 5749 5745 5742 5738 5734 5731 5727 5723 5720 5716 5713 5710 5706 5703 5700 5696 5693 5689 5686 5682 5678 5674 5670 5666 5662 5658 5653 5649 5645 5641 5637 5632 5629 5625